GW5292 Weather Reports


time (UTC)temp
F
wind
direction
speed
knots
gust
knots
rain 1hr
in
rain 24hr
in
rain mn
in
humidity
%
barometer
mb
20260901014517 69 182 0.0 0.0 0.00 0.02 0.02 93 1018.2
20260901013023 69 182 0.0 0.0 0.00 0.02 0.02 92 1018.2
20260901011526 70 182 0.0 0.0 0.00 0.02 0.02 92 1018.2
20260901010025 70 182 0.0 0.0 0.00 0.02 0.02 91 1018.1
20260901004532 70 182 0.0 0.0 0.00 0.02 0.02 91 1018.1
20260901003024 71 182 0.0 0.0 0.00 0.02 0.02 90 1018.1
20260901001533 71 182 0.0 0.0 0.00 0.02 0.02 89 1018.0
20260901000027 72 182 0.0 0.0 0.00 0.02 0.02 87 1018.0
20260831234537 73 182 0.0 0.0 0.00 0.02 0.02 86 1017.9
20260831233029 73 182 0.0 0.0 0.00 0.02 0.02 85 1017.9
20260831231522 74 182 0.0 1.7 0.00 0.02 0.02 84 1017.9
20260831230029 74 182 0.0 1.7 0.00 0.02 0.02 83 1018.0
20260831224530 75 182 0.0 0.0 0.00 0.02 0.02 83 1018.2
20260831223028 75 182 0.0 1.7 0.00 0.02 0.02 82 1018.2
20260831221531 75 182 0.0 1.7 0.00 0.02 0.02 81 1018.3
20260831220030 75 182 0.0 0.0 0.00 0.02 0.02 81 1018.5
20260831214540 76 182 0.0 1.7 0.00 0.02 0.02 79 1018.6
20260831213038 76 182 0.0 1.7 0.00 0.02 0.02 81 1018.6
20260831211530 75 182 0.0 0.9 0.00 0.02 0.02 83 1018.7
20260831210004 75 182 0.0 1.7 0.00 0.02 0.02 85 1018.8
20260831204504 74 182 0.0 1.7 0.00 0.02 0.02 84 1019.0
20260831203037 74 203 0.0 1.7 0.00 0.02 0.02 85 1019.2
20260831201518 73 200 0.9 1.7 0.01 0.02 0.02 91 1019.3
20260831200026 72 207 0.0 1.7 0.02 0.02 0.02 90 1019.3
20260831194504 73 207 0.0 0.9 0.02 0.02 0.02 90 1019.4
20260831193011 73 207 0.0 1.7 0.02 0.02 0.02 88 1019.5
20260831191515 73 207 0.9 1.7 0.01 0.01 0.01 86 1020.0
20260831190026 74 192 0.0 1.7 0.00 0.00 0.00 83 1019.8
20260831184530 75 192 0.9 1.7 0.00 0.00 0.00 81 1019.9
20260831183007 76 192 0.9 1.7 0.00 0.00 0.00 78 1020.2
20260831181510 76 192 0.9 1.7 0.00 0.00 0.00 75 1020.2
20260831180020 77 192 0.0 1.7 0.00 0.00 0.00 78 1020.1
20260831174524 76 192 0.0 1.7 0.00 0.00 0.00 77 1020.2
20260831173027 76 192 0.9 1.7 0.00 0.00 0.00 75 1020.2
20260831171509 77 342 0.0 1.7 0.00 0.00 0.00 75 1020.0
20260831170026 76 342 0.9 1.7 0.00 0.00 0.00 74 1020.2
20260831164519 77 351 0.9 2.6 0.00 0.00 0.00 72 1020.3
20260831163028 77 209 0.0 2.6 0.00 0.00 0.00 75 1020.2
20260831161532 76 12 0.0 2.6 0.00 0.00 0.00 74 1020.4
20260831160018 76 18 0.0 2.6 0.00 0.00 0.00 74 1020.3
20260831154543 76 277 0.9 3.5 0.00 0.00 0.00 75 1020.3
20260831153046 75 173 0.9 3.5 0.00 0.00 0.00 75 1020.6
20260831151527 74 13 0.9 2.6 0.00 0.00 0.00 79 1020.6
20260831150008 74 341 1.7 2.6 0.00 0.00 0.00 78 1020.6
20260831144515 73 9 0.0 1.7 0.00 0.00 0.00 81 1020.6
20260831143023 73 9 0.9 1.7 0.00 0.00 0.00 80 1020.7
20260831141529 73 9 0.9 1.7 0.00 0.00 0.00 80 1020.6
20260831140013 73 345 0.0 1.7 0.00 0.00 0.00 80 1020.8
20260831134513 73 352 0.0 1.7 0.00 0.00 0.00 81 1020.7
20260831133019 73 342 0.0 1.7 0.00 0.00 0.00 82 1020.8
20260831131528 72 23 0.0 1.7 0.00 0.00 0.00 1020.5
20260831130040 72 352 0.0 1.7 0.00 0.00 0.00 83 1020.7
20260831124512 71 59 0.0 1.7 0.00 0.00 0.00 85 1020.6
20260831123030 70 325 0.9 2.6 0.00 0.00 0.00 88 1020.5
20260831121527 70 73 0.0 0.9 0.00 0.00 0.00 89 1020.5
20260831120100 69 350 0.0 0.0 0.00 0.00 0.00 91 1020.5
20260831114534 68 350 0.0 0.0 0.00 0.00 0.00 93 1020.4
20260831113023 68 350 0.0 0.0 0.00 0.00 0.00 93 1020.2
20260831111525 67 350 0.0 0.0 0.00 0.00 0.00 93 1020.2
20260831110036 67 350 0.0 0.0 0.00 0.00 0.00 92 1019.9
20260831104537 67 350 0.0 0.0 0.00 0.00 0.00 92 1019.8
20260831103037 68 350 0.0 0.0 0.00 0.00 0.00 91 1019.7
20260831101523 68 350 0.0 0.0 0.00 0.00 0.00 92 1019.5
20260831100029 67 350 0.0 0.0 0.00 0.00 0.00 92 1019.5
20260831094531 67 350 0.0 0.0 0.00 0.00 0.00 92 1019.5
20260831093034 67 350 0.0 0.0 0.00 0.00 0.00 92 1019.3
20260831091533 67 333 0.0 0.0 0.00 0.00 0.00 92 1019.3
20260831090021 67 332 0.0 0.0 0.00 0.00 0.00 91 1019.3
20260831084530 68 9 0.0 0.0 0.00 0.00 0.00 91 1019.1
20260831083032 68 9 0.0 0.0 0.00 0.00 0.00 91 1019.2
20260831081543 69 9 0.0 0.0 0.00 0.00 0.00 91 1019.1
20260831080017 69 9 0.0 0.0 0.00 0.00 0.00 92 1019.2
20260831074526 69 9 0.0 0.0 0.00 0.00 0.00 90 1019.4
20260831073030 70 9 0.0 0.0 0.00 0.00 0.00 90 1019.2
20260831071534 70 9 0.0 0.0 0.00 0.00 0.00 90 1019.1
20260831070055 70 9 0.0 0.0 0.00 0.00 0.00 90 1019.2
20260831064528 70 9 0.0 0.0 0.00 0.00 0.00 90 1019.3
20260831063027 70 9 0.0 0.0 0.00 0.00 0.00 90 1019.2
20260831061512 70 9 0.0 0.0 0.00 0.00 0.00 90 1019.3
20260831060016 71 9 0.0 0.0 0.00 0.00 0.00 89 1019.4
20260831054521 71 9 0.0 0.0 0.00 0.00 0.00 89 1019.0
20260831053028 71 9 0.0 0.0 0.00 0.00 0.00 89 1018.9
20260831051507 72 9 0.0 0.0 0.00 0.00 0.00 88 1018.8
20260831050012 72 9 0.0 0.0 0.00 0.00 0.00 89 1018.9
20260831044519 72 9 0.0 0.0 0.00 0.00 0.00 88 1019.1
20260831043026 72 9 0.0 0.0 0.00 0.00 0.00 89 1019.1
20260831041533 72 9 0.0 0.0 0.00 0.00 0.00 90 1019.2
20260831040029 72 9 0.0 0.0 0.00 0.00 0.00 90 1019.3
20260831034516 72 9 0.0 0.0 0.00 0.00 0.00 90 1019.6
20260831033024 73 9 0.0 0.0 0.00 0.00 0.00 90 1019.4
20260831031527 73 9 0.0 0.0 0.00 0.00 0.00 90 1019.4
20260831030030 73 9 0.0 0.0 0.00 0.00 0.00 89 1019.5
20260831024511 74 9 0.0 0.0 0.00 0.00 0.00 1019.7
20260831023028 74 9 0.0 0.0 0.00 0.00 0.00 89 1019.5
20260831021545 74 9 0.0 0.0 0.00 0.00 0.00 87 1019.5
20260831020026 75 9 0.0 0.0 0.00 0.00 0.00 86 1019.5